• en Suisse
  • Liste des pays
  • À 7 jours
  • Température de l'eau
  • Carte satellitaire
  • Carte météo
  • Widgets météo
  • user-avatar
    Se connecter

    Météo par heure à Gisborne

    Ce jour, 17 Janvier, Mercredi

    Heure Température Précipitation Vent Pression Humidité
    00:00 +15°C° 0 mm 5 m/s 763 mmHg 89%
    01:00 +14°C° 0 mm 5 m/s 763 mmHg 90%
    02:00 +14°C° 0 mm 4 m/s 763 mmHg 91%
    03:00 +14°C° 0 mm 4 m/s 763 mmHg 92%
    04:00 +14°C° 0 mm 4 m/s 763 mmHg 91%
    05:00 +15°C° 0 mm 4 m/s 762 mmHg 90%
    06:00 +15°C° 0 mm 5 m/s 762 mmHg 87%
    07:00 +19°C° 0 mm 5 m/s 763 mmHg 77%
    08:00 +21°C° 0 mm 5 m/s 763 mmHg 67%
    09:00 +23°C° 0 mm 5 m/s 763 mmHg 57%
    10:00 +26°C° 0 mm 6 m/s 763 mmHg 52%
    11:00 +27°C° 0 mm 6 m/s 762 mmHg 48%
    12:00 +28°C° 0 mm 7 m/s 762 mmHg 45%
    13:00 +28°C° 0 mm 7 m/s 762 mmHg 45%
    14:00 +28°C° 0 mm 7 m/s 762 mmHg 45%
    15:00 +28°C° 0 mm 7 m/s 762 mmHg 44%
    16:00 +27°C° 0 mm 7 m/s 762 mmHg 49%
    17:00 +26°C° 0 mm 7 m/s 762 mmHg 53%
    18:00 +24°C° 0 mm 7 m/s 761 mmHg 57%
    19:00 +22°C° 0 mm 6 m/s 762 mmHg 65%
    20:00 +20°C° 0 mm 6 m/s 762 mmHg 72%
    21:00 +19°C° 0 mm 5 m/s 762 mmHg 79%
    22:00 +17°C° 0 mm 5 m/s 762 mmHg 81%
    23:00 +17°C° 0 mm 5 m/s 762 mmHg 83%

    Demain, 18 Janvier, Jeudi

    Heure Température Précipitation Vent Pression Humidité
    00:00 +17°C° 0 mm 5 m/s 762 mmHg 85%
    01:00 +17°C° 0 mm 5 m/s 761 mmHg 85%
    02:00 +17°C° 0 mm 5 m/s 761 mmHg 86%
    03:00 +17°C° 0 mm 5 m/s 761 mmHg 86%
    04:00 +17°C° 0 mm 5 m/s 761 mmHg 85%
    05:00 +19°C° 0 mm 5 m/s 761 mmHg 84%
    06:00 +19°C° 0 mm 5 m/s 761 mmHg 83%
    07:00 +20°C° 0 mm 5 m/s 761 mmHg 77%
    08:00 +22°C° 0 mm 5 m/s 761 mmHg 71%
    09:00 +23°C° 0 mm 5 m/s 761 mmHg 65%
    10:00 +25°C° 0 mm 5 m/s 761 mmHg 60%
    11:00 +27°C° 0 mm 5 m/s 760 mmHg 54%
    12:00 +28°C° 0 mm 5 m/s 760 mmHg 49%
    13:00 +28°C° 0 mm 6 m/s 760 mmHg 49%
    14:00 +29°C° 0 mm 6 m/s 760 mmHg 49%
    15:00 +29°C° 0 mm 6 m/s 759 mmHg 48%
    16:00 +27°C° 0 mm 6 m/s 759 mmHg 54%
    17:00 +26°C° 0 mm 6 m/s 759 mmHg 60%
    18:00 +25°C° 0 mm 5 m/s 759 mmHg 66%
    19:00 +23°C° 0 mm 5 m/s 759 mmHg 71%
    20:00 +22°C° 0 mm 5 m/s 759 mmHg 76%
    21:00 +21°C° 0 mm 4 m/s 759 mmHg 81%
    22:00 +21°C° 0 mm 4 m/s 759 mmHg 82%
    23:00 +20°C° 0 mm 4 m/s 759 mmHg 83%

    Après-demain, 19 Janvier, Vendredi

    Heure Température Précipitation Vent Pression Humidité
    00:00 +20°C° 0 mm 4 m/s 759 mmHg 84%
    01:00 +20°C° 0,1 mm 4 m/s 759 mmHg 85%
    02:00 +20°C° 0,1 mm 4 m/s 759 mmHg 87%
    03:00 +20°C° 0,1 mm 4 m/s 759 mmHg 88%
    04:00 +20°C° 0,1 mm 4 m/s 759 mmHg 88%
    05:00 +20°C° 0,1 mm 3 m/s 759 mmHg 89%
    06:00 +20°C° 0,1 mm 3 m/s 760 mmHg 89%
    07:00 +21°C° 0 mm 3 m/s 760 mmHg 83%
    08:00 +22°C° 0 mm 3 m/s 760 mmHg 76%
    09:00 +25°C° 0 mm 3 m/s 761 mmHg 70%
    10:00 +26°C° 0 mm 3 m/s 761 mmHg 65%
    11:00 +27°C° 0 mm 3 m/s 761 mmHg 59%
    12:00 +29°C° 0 mm 3 m/s 760 mmHg 54%
    13:00 +28°C° 0 mm 4 m/s 760 mmHg 55%
    14:00 +28°C° 0 mm 4 m/s 760 mmHg 56%
    15:00 +28°C° 0 mm 4 m/s 760 mmHg 57%
    16:00 +27°C° 0 mm 4 m/s 760 mmHg 59%
    17:00 +27°C° 0 mm 4 m/s 760 mmHg 61%
    18:00 +27°C° 0 mm 4 m/s 760 mmHg 63%
    19:00 +25°C° 0 mm 4 m/s 760 mmHg 69%
    20:00 +23°C° 0 mm 4 m/s 761 mmHg 76%
    21:00 +21°C° 0 mm 4 m/s 761 mmHg 82%
    22:00 +21°C° 0 mm 3 m/s 761 mmHg 85%
    23:00 +20°C° 0 mm 3 m/s 761 mmHg 87%

    20 Janvier, Samedi

    Heure Température Précipitation Vent Pression Humidité
    00:00 +20°C° 0 mm 3 m/s 761 mmHg 90%
    01:00 +20°C° 0 mm 3 m/s 761 mmHg 90%
    02:00 +20°C° 0 mm 3 m/s 761 mmHg 90%
    03:00 +20°C° 0 mm 3 m/s 761 mmHg 90%
    04:00 +20°C° 0 mm 3 m/s 761 mmHg 88%
    05:00 +20°C° 0 mm 2 m/s 761 mmHg 87%
    06:00 +20°C° 0 mm 2 m/s 761 mmHg 85%
    07:00 +23°C° 0 mm 2 m/s 762 mmHg 76%
    08:00 +26°C° 0 mm 2 m/s 762 mmHg 66%
    09:00 +28°C° 0 mm 2 m/s 762 mmHg 56%
    10:00 +29°C° 0 mm 3 m/s 762 mmHg 52%
    11:00 +31°C° 0 mm 3 m/s 762 mmHg 47%
    12:00 +33°C° 0 mm 4 m/s 761 mmHg 43%
    13:00 +33°C° 0 mm 4 m/s 761 mmHg 44%
    14:00 +32°C° 0 mm 4 m/s 761 mmHg 44%
    15:00 +32°C° 0 mm 4 m/s 760 mmHg 45%
    16:00 +30°C° 0 mm 4 m/s 760 mmHg 49%
    17:00 +30°C° 0 mm 4 m/s 760 mmHg 53%
    18:00 +29°C° 0 mm 4 m/s 760 mmHg 56%
    19:00 +27°C° 0 mm 4 m/s 761 mmHg 64%
    20:00 +25°C° 0 mm 4 m/s 761 mmHg 72%
    21:00 +22°C° 0 mm 4 m/s 761 mmHg 79%
    22:00 +22°C° 0 mm 3 m/s 761 mmHg 81%
    23:00 +22°C° 0 mm 3 m/s 762 mmHg 82%

    21 Janvier, Dimanche

    Heure Température Précipitation Vent Pression Humidité
    00:00 +21°C° 0 mm 3 m/s 762 mmHg 83%
    01:00 +21°C° 0 mm 2 m/s 761 mmHg 84%
    02:00 +21°C° 0 mm 2 m/s 761 mmHg 85%
    03:00 +21°C° 0 mm 2 m/s 761 mmHg 86%
    04:00 +21°C° 0 mm 2 m/s 761 mmHg 87%
    05:00 +21°C° 0 mm 2 m/s 761 mmHg 88%
    06:00 +20°C° 0 mm 2 m/s 761 mmHg 89%
    07:00 +24°C° 0 mm 1 m/s 762 mmHg 77%
    08:00 +27°C° 0 mm 1 m/s 762 mmHg 64%
    09:00 +28°C° 0 mm 0 m/s 762 mmHg 52%
    10:00 +31°C° 0 mm 1 m/s 762 mmHg 50%
    11:00 +31°C° 0 mm 2 m/s 761 mmHg 49%
    12:00 +31°C° 0 mm 3 m/s 761 mmHg 48%
    13:00 +30°C° 0,1 mm 3 m/s 761 mmHg 53%
    14:00 +30°C° 0,1 mm 3 m/s 761 mmHg 59%
    15:00 +29°C° 0,1 mm 3 m/s 761 mmHg 64%
    16:00 +28°C° 0 mm 3 m/s 760 mmHg 64%
    17:00 +28°C° 0 mm 3 m/s 760 mmHg 64%
    18:00 +28°C° 0 mm 3 m/s 760 mmHg 64%
    19:00 +27°C° 0 mm 3 m/s 760 mmHg 69%
    20:00 +25°C° 0 mm 3 m/s 761 mmHg 75%
    21:00 +24°C° 0 mm 3 m/s 761 mmHg 80%
    22:00 +22°C° 0 mm 3 m/s 761 mmHg 81%
    23:00 +22°C° 0 mm 3 m/s 761 mmHg 82%

    22 Janvier, Lundi

    Heure Température Précipitation Vent Pression Humidité
    00:00 +21°C° 0 mm 3 m/s 761 mmHg 83%
    01:00 +21°C° 0 mm 3 m/s 760 mmHg 84%
    02:00 +20°C° 0 mm 3 m/s 760 mmHg 85%
    03:00 +20°C° 0 mm 2 m/s 759 mmHg 86%
    04:00 +20°C° 0 mm 2 m/s 759 mmHg 87%
    05:00 +20°C° 0 mm 2 m/s 759 mmHg 87%
    06:00 +20°C° 0 mm 2 m/s 760 mmHg 87%
    07:00 +23°C° 0 mm 2 m/s 760 mmHg 78%
    08:00 +25°C° 0 mm 2 m/s 760 mmHg 69%
    09:00 +27°C° 0 mm 3 m/s 760 mmHg 60%
    10:00 +28°C° 0 mm 3 m/s 760 mmHg 57%
    11:00 +29°C° 0 mm 4 m/s 759 mmHg 53%
    12:00 +30°C° 0 mm 4 m/s 759 mmHg 50%
    13:00 +30°C° 0,2 mm 5 m/s 758 mmHg 54%
    14:00 +29°C° 0,2 mm 5 m/s 758 mmHg 58%
    15:00 +28°C° 0,2 mm 5 m/s 758 mmHg 61%
    16:00 +27°C° 0,1 mm 5 m/s 758 mmHg 67%
    17:00 +27°C° 0,1 mm 5 m/s 757 mmHg 72%
    18:00 +26°C° 0,1 mm 5 m/s 757 mmHg 78%
    19:00 +25°C° 0 mm 5 m/s 758 mmHg 80%
    20:00 +25°C° 0 mm 4 m/s 758 mmHg 83%
    21:00 +23°C° 0 mm 4 m/s 758 mmHg 85%
    22:00 +23°C° 0 mm 4 m/s 758 mmHg 85%
    23:00 +22°C° 0 mm 3 m/s 758 mmHg 86%
    Voir plus